SCP
0 0 0 0 0 -0 0 0 0 0 0 0 0 0 0 0 0 0 0 0 0 0 0 -0 -0 0 0 0 0 0 0 -0 0 0 0 -0 -0 0
0 0 0 0 -0 0 -0 0 0 0 0 0 0 0 0 0 0 0 0 0 0 0 0 0 0 0 0 0 0 0 0 0 -0 0 0 -0 -0 -0
0 0 -0 -0 -0 -0 -0 0 0 0 0 0 0 0 0 0 0 0 0 0 0 0 0 0 0 0 0 0 0 0 0 0 -0 -0 -0 -0 -0 -0
-0 -0 -0 -0 0 0 0 0 0 0 0 0 0 0 0 0 0 0 0 0 0 0 -0 0 0 0 0 0 0 0 -0 -0 -0 -0 -0 -0 -0 -0
-0 -0 0 0 0 0 0 0 0 0 0 0 0 0 0 0 0 0 0 0 0 0 0 0 0 0 0 0 0 0 -0 -0 -0 -0 -0 -0 -0 -0
0 -0 0 -0 0 0 -0 0 0 0 0 0 0 0 0 0 0 0 0 0 0 0 0 0 0 -0 -0 -0 0 0 -0 -0 0 0 -0 -0 -0 -0
0 0 -0 0 0 0 0 0 0 0 0 0 0 0 0 0 0 0 0 0 0 0 0 0 0 0 0 0 0 0 -0 -0 0 -0 -0 -0 -0 -0
0 0 0 0 0 0 0 0 0 0 0 0 0 0 0 0 0 0 0 0 0 0 0 0 0 0 0 0 -0 0 0 -0 -0 -0 -0 -0 -0 0
0 0 0 0 0 0 0 0 0 0 0 0 0 0 0 0 0 0 0 0 0 0 0 0 0 0 0 0 0 0 0 0 -0 -0 -0 -0 -0 0
-0 0 0 0 0 0 -0 -0 0 0 0 0 0 0 0 0 0 0 0 0 0 0 0 0 0 -0 0 0 0 0 0 0 -0 -0 -0 -0 0 0
0 0 0 0 0 -0 -0 0 0 0 0 0 0 0 0 0 0 0 0 0 0 0 0 0 0 0 0 0 -0 0 -0 0 -0 -0 -0 0 0 0
0 0 0 0 0 0 0 0 0 0 0 0 0 0 0 0 0 0 0 0 0 0 0 0 0 0 0 -0 -0 0 0 -0 -0 -0 0 0 0 0
0 0 0 0 0 0 0 0 0 0 0 0 0 0 0 0 0 0 0 0 -0 0 0 0 -0 -0 0 -0 0 0 -0 -0 -0 0 0 0 0 0
0 0 0 0 0 0 0 0 0 0 0 0 0 0 0 0 -0 0 0 0 0 0 -0 0 -0 -0 0 -0 0 -0 -0 -0 0 0 0 0 0 0
0 0 0 0 0 0 0 0 0 0 0 0 0 0 0 0 -0 0 0 0 0 0 -0 0 -0 -0 0 0 0 0 0 0 0 0 0 0 0 0
0 0 0 0 0 0 -0 0 0 0 0 0 0 0 0 0 0 0 0 0 0 -0 0 0 0 -0 -0 -0 -0 0 0 0 0 0 0 0 0 0
0 0 0 0 0 0 0 0 0 0 0 0 0 0 0 0 0 0 0 -0 0 -0 -0 0 0 -0 -0 -0 0 0 0 0 0 0 0 0 0 0
0 0 0 0 0 0 0 0 0 0 0 0 0 0 0 0 0 -0 -0 -0 0 0 0 0 0 0 -0 -0 0 -0 0 0 0 0 0 0 0 0
0 0 0 0 0 0 0 0 0 0 0 0 0 0 0 0 0 -0 -0 -0 -0 -0 -0 0 0 0 0 0 0 -0 0 0 0 0 0 0 0 0
0 0 0 0 0 0 0 0 0 0 0 0 0 0 0 0 0 -0 -0 -0 -0 -0 -0 0 -0 0 0 0 0 0 -0 0 0 0 0 0 0 0
0 0 0 0 0 0 0 0 -0 -0 -0 -0 0 0 0 0 0 -0 -0 0 0 0 0 0 -0 0 0 0 0 0 0 0 0 0 0 0 0 0
0 0 0 0 0 0 0 -0 0 0 -0 -0 -0 -0 -0 -0 0 0 0 0 0 0 0 -0 0 0 0 0 0 0 0 0 0 0 0 0 0 0
0 0 0 0 0 -0 0 0 -0 -0 -0 -0 -0 -0 -0 -0 -0 -0 -0 0 0 0 0 0 0 0 0 0 0 0 0 0 0 0 0 0 0 0
Wind_Speed_500mb
20 20 18 13 16 18 17 17 21 21 21 23 26 28 28 23 23 26 28 32 32 31 34 40 38 32 40 44 39 38 48 39 35 35 32 30 29 23
17 18 16 13 18 23 18 18 20 20 23 24 21 26 24 28 26 27 28 32 31 35 35 37 34 38 49 40 47 50 44 39 36 34 35 32 27 23
17 19 20 18 21 21 22 18 15 22 23 21 25 26 25 26 31 30 28 31 32 34 32 44 38 51 48 52 54 49 40 38 36 36 33 29 20 14
21 21 20 23 24 26 28 21 18 18 24 27 29 33 32 28 30 33 31 31 36 34 43 45 48 47 49 52 48 42 39 38 36 29 25 19 17 16
25 23 22 23 26 24 21 19 21 19 24 23 40 33 34 28 36 39 35 39 37 40 50 51 37 53 60 52 42 38 35 33 28 27 22 19 15 14
22 24 21 23 26 24 21 20 20 22 25 31 41 41 39 32 37 48 50 44 63 55 61 55 51 58 54 43 42 38 33 30 25 22 19 16 14 10
19 20 21 21 25 21 19 21 27 36 32 40 47 44 43 50 51 60 61 69 68 64 62 55 60 59 50 49 44 36 30 26 23 19 16 14 11 10
17 20 28 23 25 24 24 23 37 30 36 46 51 54 53 57 57 67 68 89 68 58 68 66 62 55 53 41 47 35 31 22 17 16 15 14 12 13
21 22 21 25 23 25 27 28 31 36 29 46 54 53 56 57 60 69 78 78 72 74 72 65 54 48 41 43 43 35 26 20 19 18 17 17 16 15
20 19 20 23 23 27 31 31 29 27 24 38 43 47 56 60 60 71 88 72 72 72 67 68 56 36 29 48 41 31 27 23 22 22 22 22 20 20
18 21 23 26 25 28 30 36 41 40 33 31 35 42 52 59 69 83 76 78 76 65 59 57 50 39 29 46 42 34 31 30 26 26 26 24 25 28
22 20 20 19 20 25 31 39 45 44 39 37 40 44 54 70 75 72 67 77 73 58 48 37 40 31 26 31 30 39 35 32 31 29 27 28 31 34
17 21 25 25 25 31 34 36 42 43 39 39 47 52 60 77 61 47 54 52 43 30 46 29 40 34 20 25 32 35 35 34 32 30 32 34 36 38
30 32 32 27 27 28 32 39 41 40 43 45 48 58 61 52 56 47 41 37 30 20 44 30 36 36 22 22 24 31 32 32 33 35 38 39 42 47
38 36 31 32 33 27 35 40 40 41 44 45 50 52 46 48 46 49 39 32 30 25 44 40 30 33 23 17 20 19 25 31 34 36 38 42 45 50
46 36 37 38 38 47 55 44 35 42 50 50 45 42 43 40 36 32 28 29 16 26 40 35 33 34 25 23 22 22 24 20 25 34 39 43 47 52
51 40 41 44 51 50 38 40 39 44 40 39 40 39 35 34 32 32 30 31 24 21 29 37 35 34 32 30 27 28 28 32 33 35 41 44 46 47
41 36 37 39 36 31 24 32 34 35 37 35 36 37 38 36 34 32 29 31 29 26 26 26 31 32 32 38 40 35 33 36 35 37 42 46 49 45
31 32 35 34 31 27 27 27 31 28 34 35 36 35 33 33 34 31 30 30 31 30 29 29 30 32 34 38 29 34 34 35 37 40 44 46 52 50
32 31 30 31 29 27 28 29 31 30 34 34 34 34 33 33 32 32 33 34 34 33 33 35 40 41 43 44 40 36 42 53 45 47 47 48 52 63
25 25 26 27 26 26 28 29 30 33 34 34 33 32 32 32 32 33 34 36 37 38 41 43 43 45 43 42 49 52 50 56 54 59 59 50 52 55
22 25 27 29 28 28 28 30 32 33 34 35 35 34 34 35 36 36 38 40 42 45 45 44 41 43 44 51 57 57 52 48 58 62 67 68 71 59
20 21 21 24 26 30 33 34 37 38 37 39 38 38 38 40 40 41 42 44 46 48 47 47 48 48 53 56 57 57 55 54 48 58 67 70 78 80
Wind_Direction_500mb
226 224 231 204 204 221 204 199 186 168 178 189 183 180 180 177 179 178 182 178 181 175 176 174 176 167 164 184 178 165 155 156 155 156 156 150 146 152
221 221 224 200 188 206 181 178 176 181 168 184 174 177 175 176 173 175 172 176 182 173 176 171 165 163 174 170 164 157 155 155 153 149 149 155 159 164
214 217 214 194 184 197 198 211 193 183 179 158 178 172 176 178 181 180 173 174 174 175 174 167 164 159 158 160 158 156 157 154 150 156 161 158 168 198
207 208 205 192 189 194 197 200 195 185 166 168 180 181 177 182 180 175 171 169 170 174 171 166 164 158 155 154 154 158 156 155 163 162 163 169 194 213
198 203 202 197 195 197 200 191 187 184 166 170 167 175 170 180 174 176 176 167 168 176 157 162 152 161 154 158 157 154 155 161 165 169 176 188 202 221
191 201 199 197 192 193 192 192 187 173 167 166 164 163 165 164 177 171 158 166 160 150 160 161 163 156 158 152 157 154 160 165 171 176 187 197 211 221
194 193 195 192 192 190 192 195 186 184 181 165 169 168 167 165 167 166 161 162 153 163 158 152 153 158 157 160 157 164 165 172 181 184 198 205 213 231
195 179 197 194 196 196 205 195 194 177 175 174 175 175 171 174 169 168 165 162 145 162 153 159 165 165 166 172 171 172 176 179 185 200 207 212 224 238
202 204 194 199 204 211 201 186 184 175 190 186 178 177 171 172 173 171 165 162 158 164 164 160 167 169 180 177 176 179 180 191 202 212 215 225 233 244
172 179 181 194 196 186 179 172 164 166 180 186 186 180 175 172 174 175 165 164 162 167 170 159 164 165 172 183 185 191 201 211 216 219 227 236 245 257
164 171 175 171 169 158 157 166 163 156 160 174 181 177 176 175 174 171 167 165 161 166 172 173 176 177 182 186 197 208 217 221 226 229 237 246 255 261
152 157 164 180 172 159 172 166 155 159 164 164 171 175 181 175 174 176 168 163 161 167 180 174 171 171 184 201 213 220 222 225 232 236 244 253 259 265
171 163 152 154 158 163 170 170 165 157 162 164 167 172 174 171 169 170 166 164 166 173 183 170 177 178 183 198 209 220 223 232 236 242 248 255 263 270
139 134 132 137 153 154 159 152 152 152 155 160 163 167 165 166 157 155 161 163 186 194 193 163 183 185 184 190 197 218 230 238 245 250 259 266 268 273
132 124 125 139 133 132 144 144 144 150 152 155 154 155 156 155 163 163 160 179 181 193 182 160 185 192 190 193 204 214 224 243 251 258 264 270 276 284
130 129 126 129 129 127 126 120 131 146 144 145 148 150 157 162 165 174 175 169 152 168 181 189 188 195 208 216 220 229 242 228 268 265 266 269 270 271
140 128 135 135 134 127 124 137 140 140 149 152 152 156 161 167 171 175 179 185 180 185 192 204 205 207 213 216 236 241 243 252 260 260 269 270 269 265
141 143 146 148 148 155 145 147 153 158 156 157 157 162 168 172 179 183 187 194 196 198 202 209 217 227 239 246 246 250 251 259 264 265 262 264 269 271
154 154 158 161 162 163 160 159 162 165 160 167 169 173 180 184 190 195 198 203 207 210 214 216 222 227 237 247 259 265 267 259 263 265 268 267 271 275
178 172 170 169 170 171 168 171 173 177 172 179 184 188 193 197 202 203 208 211 214 220 224 228 232 237 240 250 260 263 276 271 266 267 271 272 275 275
179 185 185 187 188 188 184 184 186 190 189 190 194 197 200 202 209 212 216 220 223 227 232 236 242 249 251 257 259 261 267 277 280 278 279 273 275 277
196 197 199 199 200 197 203 200 198 203 203 204 207 210 212 214 218 223 225 229 236 236 240 245 248 251 253 252 257 263 266 269 276 273 276 280 280 275
189 191 202 206 208 210 206 210 212 211 216 218 220 224 226 228 230 232 235 238 239 242 247 251 253 252 253 256 261 263 265 270 271 281 287 289 290 292
Wind_Speed_850mb
20 20 18 13 16 18 17 17 21 21 21 23 26 28 28 23 23 26 28 32 32 31 34 40 38 32 40 44 39 38 48 39 35 35 32 30 29 23
17 18 16 13 18 23 18 18 20 20 23 24 21 26 24 28 26 27 28 32 31 35 35 37 34 38 49 40 47 50 44 39 36 34 35 32 27 23
17 19 20 18 21 21 22 18 15 22 23 21 25 26 25 26 31 30 28 31 32 34 32 44 38 51 48 52 54 49 40 38 36 36 33 29 20 14
21 21 20 23 24 26 28 21 18 18 24 27 29 33 32 28 30 33 31 31 36 34 43 45 48 47 49 52 48 42 39 38 36 29 25 19 17 16
25 23 22 23 26 24 21 19 21 19 24 23 40 33 34 28 36 39 35 39 37 40 50 51 37 53 60 52 42 38 35 33 28 27 22 19 15 14
22 24 21 23 26 24 21 20 20 22 25 31 41 41 39 32 37 48 50 44 63 55 61 55 51 58 54 43 42 38 33 30 25 22 19 16 14 10
19 20 21 21 25 21 19 21 27 36 32 40 47 44 43 50 51 60 61 69 68 64 62 55 60 59 50 49 44 36 30 26 23 19 16 14 11 10
17 20 28 23 25 24 24 23 37 30 36 46 51 54 53 57 57 67 68 89 68 58 68 66 62 55 53 41 47 35 31 22 17 16 15 14 12 13
21 22 21 25 23 25 27 28 31 36 29 46 54 53 56 57 60 69 78 78 72 74 72 65 54 48 41 43 43 35 26 20 19 18 17 17 16 15
20 19 20 23 23 27 31 31 29 27 24 38 43 47 56 60 60 71 88 72 72 72 67 68 56 36 29 48 41 31 27 23 22 22 22 22 20 20
18 21 23 26 25 28 30 36 41 40 33 31 35 42 52 59 69 83 76 78 76 65 59 57 50 39 29 46 42 34 31 30 26 26 26 24 25 28
22 20 20 19 20 25 31 39 45 44 39 37 40 44 54 70 75 72 67 77 73 58 48 37 40 31 26 31 30 39 35 32 31 29 27 28 31 34
17 21 25 25 25 31 34 36 42 43 39 39 47 52 60 77 61 47 54 52 43 30 46 29 40 34 20 25 32 35 35 34 32 30 32 34 36 38
30 32 32 27 27 28 32 39 41 40 43 45 48 58 61 52 56 47 41 37 30 20 44 30 36 36 22 22 24 31 32 32 33 35 38 39 42 47
38 36 31 32 33 27 35 40 40 41 44 45 50 52 46 48 46 49 39 32 30 25 44 40 30 33 23 17 20 19 25 31 34 36 38 42 45 50
46 36 37 38 38 47 55 44 35 42 50 50 45 42 43 40 36 32 28 29 16 26 40 35 33 34 25 23 22 22 24 20 25 34 39 43 47 52
51 40 41 44 51 50 38 40 39 44 40 39 40 39 35 34 32 32 30 31 24 21 29 37 35 34 32 30 27 28 28 32 33 35 41 44 46 47
41 36 37 39 36 31 24 32 34 35 37 35 36 37 38 36 34 32 29 31 29 26 26 26 31 32 32 38 40 35 33 36 35 37 42 46 49 45
31 32 35 34 31 27 27 27 31 28 34 35 36 35 33 33 34 31 30 30 31 30 29 29 30 32 34 38 29 34 34 35 37 40 44 46 52 50
32 31 30 31 29 27 28 29 31 30 34 34 34 34 33 33 32 32 33 34 34 33 33 35 40 41 43 44 40 36 42 53 45 47 47 48 52 63
25 25 26 27 26 26 28 29 30 33 34 34 33 32 32 32 32 33 34 36 37 38 41 43 43 45 43 42 49 52 50 56 54 59 59 50 52 55
22 25 27 29 28 28 28 30 32 33 34 35 35 34 34 35 36 36 38 40 42 45 45 44 41 43 44 51 57 57 52 48 58 62 67 68 71 59
20 21 21 24 26 30 33 34 37 38 37 39 38 38 38 40 40 41 42 44 46 48 47 47 48 48 53 56 57 57 55 54 48 58 67 70 78 80
Wind_Direction_850mb
226 224 231 204 204 221 204 199 186 168 178 189 183 180 180 177 179 178 182 178 181 175 176 174 176 167 164 184 178 165 155 156 155 156 156 150 146 152
221 221 224 200 188 206 181 178 176 181 168 184 174 177 175 176 173 175 172 176 182 173 176 171 165 163 174 170 164 157 155 155 153 149 149 155 159 164
214 217 214 194 184 197 198 211 193 183 179 158 178 172 176 178 181 180 173 174 174 175 174 167 164 159 158 160 158 156 157 154 150 156 161 158 168 198
207 208 205 192 189 194 197 200 195 185 166 168 180 181 177 182 180 175 171 169 170 174 171 166 164 158 155 154 154 158 156 155 163 162 163 169 194 213
198 203 202 197 195 197 200 191 187 184 166 170 167 175 170 180 174 176 176 167 168 176 157 162 152 161 154 158 157 154 155 161 165 169 176 188 202 221
191 201 199 197 192 193 192 192 187 173 167 166 164 163 165 164 177 171 158 166 160 150 160 161 163 156 158 152 157 154 160 165 171 176 187 197 211 221
194 193 195 192 192 190 192 195 186 184 181 165 169 168 167 165 167 166 161 162 153 163 158 152 153 158 157 160 157 164 165 172 181 184 198 205 213 231
195 179 197 194 196 196 205 195 194 177 175 174 175 175 171 174 169 168 165 162 145 162 153 159 165 165 166 172 171 172 176 179 185 200 207 212 224 238
202 204 194 199 204 211 201 186 184 175 190 186 178 177 171 172 173 171 165 162 158 164 164 160 167 169 180 177 176 179 180 191 202 212 215 225 233 244
172 179 181 194 196 186 179 172 164 166 180 186 186 180 175 172 174 175 165 164 162 167 170 159 164 165 172 183 185 191 201 211 216 219 227 236 245 257
164 171 175 171 169 158 157 166 163 156 160 174 181 177 176 175 174 171 167 165 161 166 172 173 176 177 182 186 197 208 217 221 226 229 237 246 255 261
152 157 164 180 172 159 172 166 155 159 164 164 171 175 181 175 174 176 168 163 161 167 180 174 171 171 184 201 213 220 222 225 232 236 244 253 259 265
171 163 152 154 158 163 170 170 165 157 162 164 167 172 174 171 169 170 166 164 166 173 183 170 177 178 183 198 209 220 223 232 236 242 248 255 263 270
139 134 132 137 153 154 159 152 152 152 155 160 163 167 165 166 157 155 161 163 186 194 193 163 183 185 184 190 197 218 230 238 245 250 259 266 268 273
132 124 125 139 133 132 144 144 144 150 152 155 154 155 156 155 163 163 160 179 181 193 182 160 185 192 190 193 204 214 224 243 251 258 264 270 276 284
130 129 126 129 129 127 126 120 131 146 144 145 148 150 157 162 165 174 175 169 152 168 181 189 188 195 208 216 220 229 242 228 268 265 266 269 270 271
140 128 135 135 134 127 124 137 140 140 149 152 152 156 161 167 171 175 179 185 180 185 192 204 205 207 213 216 236 241 243 252 260 260 269 270 269 265
141 143 146 148 148 155 145 147 153 158 156 157 157 162 168 172 179 183 187 194 196 198 202 209 217 227 239 246 246 250 251 259 264 265 262 264 269 271
154 154 158 161 162 163 160 159 162 165 160 167 169 173 180 184 190 195 198 203 207 210 214 216 222 227 237 247 259 265 267 259 263 265 268 267 271 275
178 172 170 169 170 171 168 171 173 177 172 179 184 188 193 197 202 203 208 211 214 220 224 228 232 237 240 250 260 263 276 271 266 267 271 272 275 275
179 185 185 187 188 188 184 184 186 190 189 190 194 197 200 202 209 212 216 220 223 227 232 236 242 249 251 257 259 261 267 277 280 278 279 273 275 277
196 197 199 199 200 197 203 200 198 203 203 204 207 210 212 214 218 223 225 229 236 236 240 245 248 251 253 252 257 263 266 269 276 273 276 280 280 275
189 191 202 206 208 210 206 210 212 211 216 218 220 224 226 228 230 232 235 238 239 242 247 251 253 252 253 256 261 263 265 270 271 281 287 289 290 292